Weather History for Centerville, IA

Change the Weather History Date:

Monday, December 3, 2012

  Actual Average Record
Temperature  
Mean Temperature 58 °F -  
Max Temperature 69 °F 38 °F 69 °F (2012)
Min Temperature 46 °F 21 °F 0 °F (1985)
Degree Days  
Heating Degree Days 8    
Growing Degree Days 8 (Base 50)    
Moisture  
Dew Point 51 °F    
Average Humidity 82    
Maximum Humidity 100    
Minimum Humidity 60    
Precipitation  
Precipitation 0.00 in - - ()
Sea Level Pressure  
Sea Level Pressure 29.84 in    
Wind  
Wind Speed 13 mph (SSW)    
Max Wind Speed 23 mph    
Max Gust Speed 32 mph    
Visibility 8 miles    
Events Fog    
Averages and records for this station are not official NWS values.
T = Trace of Precipitation, MM = Missing Value Source: NWS Daily Summary

Daily Weather History Graph

Daily Weather History Graph

Search for Another Location

Airport:

Trip Planner

Search our weather history database for the weather conditions in past years. The results will help you decide how hot, cold, wet, or windy it might be!

Date:

Astronomy

Dec. 03, 2012 Rise Set
Actual Time 7:18 AM CST 4:44 PM CST
Civil Twilight 6:48 AM CST 5:14 PM CST
Nautical Twilight 6:14 AM CST 5:49 PM CST
Astronomical Twilight 5:41 AM CST 6:22 PM CST
Moon 9:32 PM CST (12/3) 10:41 AM CST (12/3)
Length of Visible Light 10h 26m
Length of Day
9h 25m
Waning Gibbous, 78% of the Moon is Illuminated
Dec 3
Waning Gibbous
Dec 6
Last Quarter
Dec 13
New
Dec 19
First Quarter
Dec 28
Full

Hourly Weather History & Observations

Time (CST) Temp. Windchill Dew Point Humidity Pressure Visibility Wind Dir Wind Speed Gust Speed Precip Events Conditions
12:15 AM 50.0 °F - 50.0 °F 100% 29.92 in 0.2 mi SE 8.1 mph - N/A Fog Fog
12:35 AM 50.0 °F - 50.0 °F 100% 29.92 in 0.2 mi ESE 9.2 mph - N/A Fog Fog
12:55 AM 50.0 °F - 50.0 °F 100% 29.91 in 0.2 mi ESE 8.1 mph - N/A Fog Fog
1:15 AM 50.0 °F - 50.0 °F 100% 29.90 in 0.5 mi SE 9.2 mph - N/A Fog Fog
1:35 AM 50.0 °F - 50.0 °F 100% 29.89 in 0.2 mi SE 8.1 mph - N/A Fog Fog
1:55 AM 50.0 °F - 50.0 °F 100% 29.88 in 0.2 mi SE 8.1 mph - N/A Fog Fog
2:15 AM 50.0 °F - 50.0 °F 100% 29.88 in 1.8 mi ESE 9.2 mph - N/A   Overcast
2:35 AM 50.0 °F - 50.0 °F 100% 29.87 in 3.0 mi SE 10.4 mph - N/A   Mostly Cloudy
2:55 AM 50.0 °F - 50.0 °F 100% 29.86 in 4.0 mi SE 11.5 mph - N/A   Scattered Clouds
3:15 AM 50.0 °F - 50.0 °F 100% 29.85 in 5.0 mi SE 10.4 mph - N/A   Scattered Clouds
3:35 AM 51.8 °F - 51.8 °F 100% 29.84 in 5.0 mi SSE 10.4 mph - N/A   Partly Cloudy
3:55 AM 51.8 °F - 51.8 °F 100% 29.83 in 5.0 mi SSE 9.2 mph - N/A   Clear
4:15 AM 53.6 °F - 53.6 °F 100% 29.82 in 5.0 mi SSE 11.5 mph - N/A   Partly Cloudy
4:35 AM 53.6 °F - 53.6 °F 100% 29.80 in 5.0 mi SSE 13.8 mph - N/A   Clear
4:55 AM 53.6 °F - 53.6 °F 100% 29.80 in 5.0 mi SSE 11.5 mph - N/A   Clear
5:15 AM 53.6 °F - 53.6 °F 100% 29.79 in 5.0 mi SSE 13.8 mph - N/A   Clear
5:35 AM 55.4 °F - 55.4 °F 100% 29.78 in 6.0 mi SSE 13.8 mph - N/A   Clear
5:55 AM 55.4 °F - 55.4 °F 100% 29.78 in 7.0 mi SSE 13.8 mph - N/A   Clear
6:15 AM 55.4 °F - 55.4 °F 100% 29.78 in 7.0 mi SSE 12.7 mph 20.7 mph N/A   Clear
6:35 AM 55.4 °F - 55.4 °F 100% 29.77 in 8.0 mi SSE 11.5 mph - N/A   Clear
7:15 AM 57.2 °F - 57.2 °F 100% 29.78 in 10.0 mi SSE 12.7 mph 21.9 mph N/A   Clear
7:55 AM 59.0 °F - 59.0 °F 100% 29.77 in 10.0 mi South 16.1 mph 21.9 mph N/A   Partly Cloudy
8:15 AM 59.0 °F - 59.0 °F 100% 29.76 in 10.0 mi South 19.6 mph 27.6 mph N/A   Clear
8:35 AM 60.8 °F - 60.8 °F 100% 29.75 in 10.0 mi SSE 17.3 mph 28.8 mph N/A   Clear
8:55 AM 62.6 °F - 62.6 °F 100% 29.75 in 10.0 mi South 23.0 mph 32.2 mph N/A   Clear
9:15 AM 62.6 °F - 62.6 °F 100% 29.74 in 10.0 mi South 20.7 mph 28.8 mph N/A   Scattered Clouds
9:35 AM 62.6 °F - 62.6 °F 100% 29.74 in 10.0 mi South 20.7 mph 27.6 mph N/A   Mostly Cloudy
10:35 AM 64.4 °F - 60.8 °F 88% 29.74 in 10.0 mi South 21.9 mph 26.5 mph N/A   Overcast
10:55 AM 66.2 °F - 60.8 °F 83% 29.74 in 10.0 mi South 18.4 mph 26.5 mph N/A   Overcast
11:15 AM 66.2 °F - 59.0 °F 78% 29.74 in 10.0 mi SSW 19.6 mph 29.9 mph N/A   Overcast
11:55 AM 66.2 °F - 59.0 °F 78% 29.72 in 10.0 mi South 19.6 mph 28.8 mph N/A   Overcast
12:15 PM 66.2 °F - 59.0 °F 78% 29.71 in 10.0 mi South 18.4 mph 28.8 mph N/A   Overcast
12:35 PM 66.2 °F - 59.0 °F 78% 29.72 in 10.0 mi SSW 18.4 mph 27.6 mph N/A   Mostly Cloudy
12:55 PM 66.2 °F - 59.0 °F 78% 29.72 in 10.0 mi SSW 20.7 mph 27.6 mph N/A   Mostly Cloudy
1:15 PM 66.2 °F - 59.0 °F 78% 29.72 in 10.0 mi SSW 19.6 mph 24.2 mph N/A   Mostly Cloudy
1:35 PM 68.0 °F - 57.2 °F 68% 29.73 in 10.0 mi SSW 18.4 mph 24.2 mph N/A   Overcast
1:55 PM 68.0 °F - 57.2 °F 68% 29.73 in 10.0 mi SW 18.4 mph 26.5 mph N/A   Overcast
2:15 PM 69.8 °F - 55.4 °F 60% 29.72 in 10.0 mi SSW 17.3 mph 28.8 mph N/A   Scattered Clouds
2:35 PM 68.0 °F - 55.4 °F 64% 29.73 in 10.0 mi SW 23.0 mph 27.6 mph N/A   Partly Cloudy
2:55 PM 68.0 °F - 55.4 °F 64% 29.75 in 10.0 mi SW 21.9 mph 28.8 mph N/A   Partly Cloudy
3:15 PM 68.0 °F - 55.4 °F 64% 29.75 in 10.0 mi SW 17.3 mph 24.2 mph N/A   Scattered Clouds
3:35 PM 68.0 °F - 55.4 °F 64% 29.76 in 10.0 mi SW 13.8 mph 21.9 mph N/A   Scattered Clouds
3:55 PM 68.0 °F - 53.6 °F 60% 29.77 in 10.0 mi WSW 15.0 mph 21.9 mph N/A   Clear
4:15 PM 66.2 °F - 53.6 °F 64% 29.79 in 10.0 mi WSW 16.1 mph 19.6 mph N/A   Clear
4:35 PM 64.4 °F - 51.8 °F 64% 29.80 in 10.0 mi West 12.7 mph - N/A   Mostly Cloudy
4:55 PM 60.8 °F - 50.0 °F 68% 29.83 in 10.0 mi WNW 19.6 mph 31.1 mph N/A   Mostly Cloudy
5:15 PM 59.0 °F - 50.0 °F 72% 29.84 in 10.0 mi WNW 13.8 mph - N/A   Mostly Cloudy
5:35 PM 57.2 °F - 48.2 °F 72% 29.86 in 10.0 mi WNW 12.7 mph - N/A   Scattered Clouds
5:55 PM 55.4 °F - 46.4 °F 72% 29.87 in 10.0 mi WNW 13.8 mph - N/A   Partly Cloudy
6:15 PM 55.4 °F - 44.6 °F 67% 29.89 in 10.0 mi NW 11.5 mph - N/A   Scattered Clouds
6:35 PM 55.4 °F - 42.8 °F 63% 29.90 in 10.0 mi NW 16.1 mph - N/A   Mostly Cloudy
6:55 PM 53.6 °F - 42.8 °F 67% 29.91 in 10.0 mi NW 15.0 mph - N/A   Mostly Cloudy
7:15 PM 53.6 °F - 41.0 °F 62% 29.92 in 10.0 mi NNW 15.0 mph - N/A   Scattered Clouds
7:35 PM 51.8 °F - 41.0 °F 67% 29.94 in 10.0 mi NW 10.4 mph - N/A   Clear
7:55 PM 50.0 °F - 41.0 °F 71% 29.95 in 10.0 mi NW 9.2 mph - N/A   Clear
8:15 PM 48.2 °F - 41.0 °F 76% 29.96 in 10.0 mi NW 8.1 mph - N/A   Clear
8:35 PM 48.2 °F - 41.0 °F 76% 29.97 in 10.0 mi NW 10.4 mph - N/A   Clear
8:55 PM 48.2 °F - 41.0 °F 76% 29.98 in 10.0 mi NW 11.5 mph - N/A   Clear
9:15 PM 48.2 °F - 41.0 °F 76% 29.97 in 10.0 mi NW 12.7 mph - N/A   Clear
9:35 PM 48.2 °F - 39.2 °F 71% 29.98 in 10.0 mi NNW 12.7 mph - N/A   Clear
9:55 PM 50.0 °F - 37.4 °F 62% 29.99 in 10.0 mi NNW 13.8 mph - N/A   Clear
10:15 PM 48.2 °F - 37.4 °F 66% 29.99 in 10.0 mi NNW 13.8 mph - N/A   Clear
10:35 PM 48.2 °F - 35.6 °F 62% 30.00 in 10.0 mi NNW 12.7 mph - N/A   Clear
10:55 PM 48.2 °F - 35.6 °F 62% 30.00 in 10.0 mi NNW 10.4 mph - N/A   Clear
11:15 PM 48.2 °F - 35.6 °F 62% 30.01 in 10.0 mi NNW 10.4 mph - N/A   Clear
11:35 PM 46.4 °F 41.9 °F 35.6 °F 66% 30.01 in 10.0 mi NNW 9.2 mph - N/A   Clear
11:55 PM 46.4 °F 42.4 °F 35.6 °F 66% 30.02 in 10.0 mi NNW 8.1 mph - N/A   Clear